Weather History for PAVD - August, 2013

Change the Weather History Date:

Thursday, August 8, 2013

  Actual Average (PAVW) Record (PAVW)
Temperature  
Mean Temperature 52 °F 55 °F  
Max Temperature 57 °F 62 °F 83 °F (2003)
Min Temperature 48 °F 48 °F 44 °F (2011)
Degree Days  
Heating Degree Days 12 10  
Month to date heating degree days 80  
Since 1 June heating degree days 741  
Since 1 July heating degree days 390  
Cooling Degree Days 0    
Month to date cooling degree days  
Year to date cooling degree days  
Since 1 June cooling degree days  
Growing Degree Days 2 (Base 50)    
Moisture  
Dew Point 49 °F    
Average Humidity 86    
Maximum Humidity 94    
Minimum Humidity 67    
Precipitation  
Precipitation 0.14 in 0.21 in 1.92 in (1983)
Month to date precipitation 1.61  
Year to date precipitation 31.61  
Snow  
Snow 0.00 in 0.00 in 0.00 in (2013)
Month to date snowfall 0.0  
Since 1 June snowfall 0.0  
Snow Depth -    
Sea Level Pressure  
Sea Level Pressure 29.89 in    
Wind  
Wind Speed 3 mph (WSW)    
Max Wind Speed 16 mph    
Max Gust Speed 22 mph    
Visibility 8 miles    
Events Rain    
T = Trace of Precipitation, MM = Missing Value Source: NWS Daily Summary

Daily Weather History Graph

Daily Weather History Graph

Search for Another Location

Airport or City:

Trip Planner

Search our weather history database for the weather conditions in past years. The results will help you decide how hot, cold, wet, or windy it might be!

Date:

Astronomy

Aug. 08, 2013 Rise Set
Actual Time 5:36 AM AKDT 10:02 PM AKDT
Civil Twilight 4:37 AM AKDT 11:00 PM AKDT
Nautical Twilight 2:47 AM AKDT 12:44 AM AKDT
Astronomical Twilight Sun does not set Sun does not set
Moon 8:26 AM AKDT 9:43 PM AKDT
Length of Visible Light 18h 22m
Length of Day
16h 25m
Waxing Crescent, 4% of the Moon is Illuminated
Aug 8
Waxing Crescent
Aug 14
First Quarter
Aug 20
Full
Aug 28
Last Quarter
Sep 5
New

Hourly Weather History & Observations

Time (AKDT) Temp. Dew Point Humidity Pressure Visibility Wind Dir Wind Speed Gust Speed Precip Events Conditions
12:16 AM 50.0 °F 46.4 °F 87% 29.86 in 10.0 mi East 6.9 mph - N/A   Overcast
12:36 AM 50.0 °F 46.4 °F 87% 29.87 in 10.0 mi Calm Calm - N/A   Overcast
12:56 AM 50.0 °F 46.4 °F 87% 29.87 in 10.0 mi Calm Calm - 0.01 in   Overcast
1:16 AM 50.0 °F 46.4 °F 87% 29.88 in 7.0 mi Calm Calm - N/A   Overcast
1:36 AM 50.0 °F 48.2 °F 94% 29.88 in 5.0 mi ENE 4.6 mph - 0.01 in   Overcast
1:56 AM 48.2 °F 46.4 °F 93% 29.87 in 8.0 mi East 4.6 mph - 0.03 in   Overcast
2:16 AM 48.2 °F 46.4 °F 93% 29.87 in 10.0 mi East 4.6 mph - N/A   Overcast
2:36 AM 48.2 °F 44.6 °F 87% 29.86 in 10.0 mi East 4.6 mph - N/A   Overcast
2:56 AM 48.2 °F 46.4 °F 93% 29.86 in 10.0 mi Calm Calm - N/A   Overcast
3:16 AM 50.0 °F 46.4 °F 87% 29.86 in 10.0 mi Calm Calm - N/A   Overcast
3:36 AM 48.2 °F 46.4 °F 93% 29.86 in 10.0 mi East 3.5 mph - N/A   Overcast
3:56 AM 48.2 °F 46.4 °F 93% 29.86 in 9.0 mi ENE 4.6 mph - N/A   Overcast
4:16 AM 48.2 °F 46.4 °F 93% 29.85 in 10.0 mi ENE 5.8 mph - 0.02 in   Overcast
4:36 AM 48.2 °F 46.4 °F 93% 29.85 in 10.0 mi Calm Calm - 0.02 in   Mostly Cloudy
4:56 AM 48.2 °F 46.4 °F 93% 29.85 in 10.0 mi Calm Calm - 0.03 in   Overcast
5:16 AM 48.2 °F 44.6 °F 87% 29.85 in 10.0 mi East 5.8 mph - N/A   Overcast
5:36 AM 48.2 °F 44.6 °F 87% 29.85 in 10.0 mi East 3.5 mph - N/A   Mostly Cloudy
5:56 AM 48.2 °F 44.6 °F 87% 29.85 in 10.0 mi Calm Calm - N/A   Mostly Cloudy
6:16 AM 50.0 °F 46.4 °F 87% 29.85 in 3.0 mi Calm Calm - N/A   Overcast
6:36 AM 48.2 °F 44.6 °F 87% 29.85 in 3.0 mi Calm Calm - N/A   Overcast
6:56 AM 48.2 °F 46.4 °F 93% 29.85 in 3.0 mi Calm Calm - N/A   Overcast
7:16 AM 50.0 °F 46.4 °F 87% 29.86 in 3.0 mi Calm Calm - 0.01 in   Overcast
7:18 AM 50.0 °F 46.4 °F 87% 29.86 in 1.0 mi Calm Calm - N/A Rain Light Rain
7:36 AM 51.8 °F 48.2 °F 88% 29.85 in 1.0 mi Calm Calm - 0.01 in   Overcast
7:56 AM 50.0 °F 48.2 °F 94% 29.85 in 2.5 mi Calm Calm - 0.01 in   Overcast
8:16 AM 51.8 °F 48.2 °F 88% 29.86 in 2.5 mi Calm Calm - N/A   Overcast
8:36 AM 51.8 °F 48.2 °F 88% 29.85 in 5.0 mi Calm Calm - N/A   Overcast
8:56 AM 51.8 °F 48.2 °F 88% 29.86 in 5.0 mi Calm Calm - N/A   Overcast
9:16 AM 51.8 °F 50.0 °F 94% 29.86 in 5.0 mi Calm Calm - N/A   Overcast
9:36 AM 53.6 °F 48.2 °F 82% 29.86 in 5.0 mi West 3.5 mph - N/A   Overcast
9:56 AM 53.6 °F 50.0 °F 88% 29.86 in 9.0 mi Calm Calm - N/A   Mostly Cloudy
10:16 AM 55.4 °F 51.8 °F 88% 29.86 in 9.0 mi Calm Calm - N/A   Mostly Cloudy
10:36 AM 53.6 °F 50.0 °F 88% 29.86 in 9.0 mi Calm Calm - N/A   Mostly Cloudy
10:56 AM 55.4 °F 51.8 °F 88% 29.86 in 10.0 mi Calm Calm - N/A   Mostly Cloudy
11:16 AM 55.4 °F 51.8 °F 88% 29.87 in 10.0 mi Calm Calm - N/A   Mostly Cloudy
11:36 AM 55.4 °F 50.0 °F 82% 29.87 in 10.0 mi West 3.5 mph - N/A   Mostly Cloudy
11:56 AM 55.4 °F 50.0 °F 82% 29.88 in 10.0 mi Calm Calm - N/A   Overcast
12:16 PM 55.4 °F 51.8 °F 88% 29.88 in 10.0 mi Calm Calm - N/A   Overcast
12:36 PM 57.2 °F 51.8 °F 82% 29.87 in 10.0 mi Calm Calm - N/A   Overcast
12:56 PM 57.2 °F 51.8 °F 82% 29.88 in 10.0 mi Calm Calm - N/A   Mostly Cloudy
1:16 PM 57.2 °F 51.8 °F 82% 29.88 in 10.0 mi Calm Calm - N/A   Mostly Cloudy
1:36 PM 57.2 °F 51.8 °F 82% 29.88 in 10.0 mi WSW 4.6 mph - N/A   Mostly Cloudy
1:56 PM 57.2 °F 51.8 °F 82% 29.89 in 7.0 mi West 3.5 mph - N/A   Overcast
2:16 PM 55.4 °F 51.8 °F 88% 29.89 in 7.0 mi WSW 3.5 mph - N/A   Overcast
2:36 PM 55.4 °F 51.8 °F 88% 29.90 in 7.0 mi West 3.5 mph - 0.01 in   Overcast
2:56 PM 55.4 °F 51.8 °F 88% 29.90 in 7.0 mi West 3.5 mph - 0.01 in   Overcast
3:16 PM 55.4 °F 51.8 °F 88% 29.90 in 7.0 mi WSW 4.6 mph - N/A   Overcast
3:36 PM 57.2 °F 51.8 °F 82% 29.90 in 7.0 mi WSW 4.6 mph - N/A   Overcast
3:56 PM 55.4 °F 51.8 °F 88% 29.90 in 7.0 mi WSW 5.8 mph - N/A   Overcast
4:16 PM 55.4 °F 51.8 °F 88% 29.90 in 7.0 mi WSW 4.6 mph - 0.01 in   Overcast
4:36 PM 55.4 °F 53.6 °F 94% 29.91 in 7.0 mi SW 8.1 mph - 0.02 in   Overcast
4:56 PM 55.4 °F 51.8 °F 88% 29.91 in 3.0 mi West 10.4 mph - 0.02 in   Overcast
5:10 PM 55.4 °F 53.6 °F 94% 29.91 in 1.0 mi SW 9.2 mph - N/A Rain Light Rain
5:16 PM 55.4 °F 51.8 °F 88% 29.91 in 1.0 mi West 10.4 mph - 0.01 in   Overcast
5:25 PM 55.4 °F 51.8 °F 88% 29.91 in 3.0 mi SW 12.7 mph - N/A Rain Light Rain
5:36 PM 55.4 °F 51.8 °F 88% 29.91 in 3.0 mi West 16.1 mph - 0.02 in   Overcast
5:56 PM 55.4 °F 50.0 °F 82% 29.92 in 5.0 mi WNW 15.0 mph - 0.03 in   Overcast
6:16 PM 55.4 °F 48.2 °F 77% 29.92 in 5.0 mi WNW 16.1 mph 21.9 mph N/A   Overcast
6:36 PM 57.2 °F 48.2 °F 72% 29.92 in 5.0 mi West 12.7 mph 21.9 mph N/A   Overcast
6:56 PM 57.2 °F 48.2 °F 72% 29.93 in 10.0 mi WNW 9.2 mph 20.7 mph N/A   Overcast
7:16 PM 57.2 °F 46.4 °F 67% 29.93 in 10.0 mi WNW 9.2 mph 16.1 mph N/A   Overcast
7:36 PM 57.2 °F 48.2 °F 72% 29.94 in 10.0 mi West 12.7 mph - N/A   Overcast
7:56 PM 55.4 °F 48.2 °F 77% 29.95 in 10.0 mi Calm Calm - N/A   Overcast
8:16 PM 55.4 °F 48.2 °F 77% 29.96 in 10.0 mi Calm Calm - N/A   Overcast
8:36 PM 55.4 °F 48.2 °F 77% 29.96 in 10.0 mi SSW 3.5 mph - N/A   Overcast
8:56 PM 55.4 °F 48.2 °F 77% 29.96 in 10.0 mi South 4.6 mph - N/A   Overcast
9:16 PM 53.6 °F 48.2 °F 82% 29.97 in 10.0 mi Calm Calm - N/A   Overcast
9:36 PM 53.6 °F 50.0 °F 88% 29.97 in 10.0 mi Calm Calm - N/A   Overcast
9:56 PM 53.6 °F 50.0 °F 88% 29.97 in 10.0 mi Calm Calm - N/A   Overcast
10:16 PM 53.6 °F 50.0 °F 88% 29.98 in 10.0 mi Calm Calm - N/A   Overcast
10:36 PM 53.6 °F 50.0 °F 88% 29.98 in 10.0 mi Calm Calm - N/A   Overcast
10:56 PM 53.6 °F 50.0 °F 88% 29.98 in 10.0 mi Calm Calm - N/A   Overcast
11:16 PM 53.6 °F 50.0 °F 88% 29.98 in 9.0 mi Calm Calm - N/A   Overcast
11:36 PM 51.8 °F 50.0 °F 94% 29.98 in 10.0 mi East 4.6 mph - N/A   Overcast
11:56 PM 50.0 °F 46.4 °F 87% 29.98 in 10.0 mi East 3.5 mph - N/A   Overcast